Regional Weather Roundup
Issued by NWS

Home | Current Version | Previous Version | Text Only | Print | Product List | Glossary On
Versions: 1 2 3 4 5 6 7 8 9 10 11 12 13 14 15 16 17 18 19 20 21 22 23 24 25 26 27 28 29 30 31 32 33 34 35 36 37 38 39 40 41 42 43 44 45 46 47 48 49 50
000
ASUS43 KBIS 280302
RWRND

NORTH DAKOTA REGIONAL WEATHER ROUNDUP
NATIONAL WEATHER SERVICE BISMARCK ND
1000 PM CDT THU APR 27 2017

NOTE: "FAIR" INDICATES FEW OR NO CLOUDS BELOW 12,000 FEET WITH NO
SIGNIFICANT WEATHER AND/OR OBSTRUCTIONS TO VISIBILITY.


NDZ001>003-009>011-017-280400-
NORTHWEST NORTH DAKOTA

CITY           SKY/WX    TMP DP  RH WIND       PRES   REMARKS
WILLISTON      FAIR      41  16  36 E6        29.81R
MINOT          FAIR      37  25  61 N7        29.82R
MINOT AFB      CLEAR     42  26  52 NE9       29.82R
$$

NDZ018>021-031>035-040>046-280400-
SOUTHWEST NORTH DAKOTA

CITY           SKY/WX    TMP DP  RH WIND       PRES   REMARKS
BISMARCK       FAIR      43  25  49 NE6       29.80R
DICKINSON      FAIR      35  19  52 NE7       29.76R
GARRISON         N/A     35  22  58 N6        29.81R
HETTINGER ARPT CLEAR     34  25  69 NE7       29.77R
$$

NDZ004>008-012>016-024-026-027-054-280400-
NORTHEAST NORTH DAKOTA

CITY           SKY/WX    TMP DP  RH WIND       PRES   REMARKS
GRAND FORKS    PTCLDY    36  30  79 N17       29.79R
GRND FRKS AFB  MOCLDY    36  28  75 NE15      29.80R
DEVILS LAKE    CLOUDY    40  28  62 NE13      29.82R
$$

NDZ022-023-025-028>030-036>039-047>053-280400-
SOUTHEAST NORTH DAKOTA

CITY           SKY/WX    TMP DP  RH WIND       PRES   REMARKS
FARGO          CLOUDY    36  30  79 CALM      29.77R
JAMESTOWN      CLOUDY    40  31  70 N9        29.78R
$$





USA.gov is the U.S. government's official web portal to all federal, state and local government web resources and services.